{"data":{"norad_id":66736,"epoch":"2026-09-20T02:43:44.537088Z","epoch_age_seconds":55272,"freshness":"FRESH","line1":"1 66736U 25276BY  26263.11370992  .00004215  00000+0  18839-3 0  9994","line2":"2 66736  97.4142 335.6356 0001635  12.3783 347.7493 15.21868337 44871","mean_motion":15.21868337,"eccentricity":0.0001635,"inclination_deg":97.4142,"raan_deg":335.6356,"arg_perigee_deg":12.3783,"mean_anomaly_deg":347.7493,"bstar":0.00018839,"rev_number":4487,"period_min":94.620537466376,"perigee_km":499.08072835021,"apogee_km":501.32994629452,"semimajor_km":6878.3423373224,"source":"CELESTRAK","updated_at":"2026-09-20T09:00:34.753851Z"}}